Location: Br�znic
(45.9167°N, 22.6500°E)
Time: 03:21:16
(UTC+00:00)

Cosmos 2181 Rocket - Visible Passes

Search period start: 06 October 2022 00:00
Search period end: 16 October 2022 00:00
Orbit: 951 x 1016 km, 82.9° (Epoch: 05 October)

Date Brightness Start Highest point End Pass type
(mag) Time Alt. Az. Time Alt. Az. Time Alt. Az.
06 Oct 6.5 21:26:51 10° N 21:27:31 13° N 21:27:31 13° N visible
07 Oct 6.4 20:09:34 10° N 20:10:09 12° NNE 20:10:09 12° NNE visible
07 Oct 6.7 21:54:45 10° NNW 21:54:58 11° NNW 21:54:58 11° NNW visible
08 Oct 6.4 20:36:51 10° N 20:37:37 14° N 20:37:37 14° N visible
09 Oct 6.5 21:04:27 10° N 21:05:05 13° N 21:05:05 13° N visible
10 Oct 6.4 19:47:12 10° NNE 19:47:44 12° NNE 19:47:44 12° NNE visible
10 Oct 6.7 21:32:20 10° NNW 21:32:34 11° NNW 21:32:34 11° NNW visible
11 Oct 6.4 20:14:28 10° N 20:15:13 14° N 20:15:13 14° N visible
12 Oct 6.5 20:42:03 10° N 20:42:43 13° N 20:42:43 13° N visible
13 Oct 6.3 19:24:50 10° NNE 19:25:24 12° NNE 19:25:24 12° NNE visible
13 Oct 6.7 21:09:55 10° NNW 21:10:13 11° NNW 21:10:13 11° NNW visible
14 Oct 6.3 19:52:05 10° N 19:52:54 14° N 19:52:54 14° N visible
15 Oct 6.4 20:19:39 10° N 20:20:25 14° N 20:20:25 14° N visible
